Watertown, NY

8:20 PM EDT on April 28, 2017 (GMT -0400)
Watertown International

Weather History for KART - April, 2014

Change the Weather History Date:

Sunday, April 20, 2014

  Actual Average Record
Temperature  
Mean Temperature 44 °F 46 °F  
Max Temperature 64 °F 57 °F 83 °F (1957)
Min Temperature 24 °F 35 °F 20 °F (1961)
Degree Days  
Heating Degree Days 21 19  
Month to date heating degree days 444 464  
Since 1 July heating degree days 7420 6971  
Cooling Degree Days 0 0  
Month to date cooling degree days 0 0  
Year to date cooling degree days 0 0  
Moisture  
Dew Point 26 °F    
Average Humidity 53    
Maximum Humidity 81    
Minimum Humidity 24    
Precipitation  
Precipitation 0.00 in 0.09 in 0.97 in (2011)
Month to date precipitation 3.27 1.94  
Year to date precipitation 12.48 9.12  
Sea Level Pressure  
Sea Level Pressure 30.35 in    
Wind  
Wind Speed 4 mph (WNW)    
Max Wind Speed 12 mph    
Max Gust Speed 14 mph    
Visibility 10 miles    
Events      
T = Trace of Precipitation, MM = Missing Value Source: NWS Daily Summary

Daily Weather History Graph

Daily Weather History Graph

Search for Another Location

Airport or City:

Trip Planner

Search our weather history database for the weather conditions in past years. The results will help you decide how hot, cold, wet, or windy it might be!

Date:

Astronomy

Apr. 20, 2014 Rise Set
Actual Time 6:12 AM EDT 7:54 PM EDT
Civil Twilight 5:42 AM EDT 8:24 PM EDT
Nautical Twilight 5:05 AM EDT 9:01 PM EDT
Astronomical Twilight 4:25 AM EDT 9:42 PM EDT
Moon 12:36 AM EDT (4/20) 10:26 AM EDT (4/20)
Length of Visible Light 14h 42m
Length of Day
13h 41m
Waning Gibbous, 69% of the Moon is Illuminated
Apr 20
Waning Gibbous
Apr 22
Last Quarter
Apr 29
New
May 6
First Quarter
May 14
Full

Hourly Weather History & Observations

Time (EDT) Temp. Windchill Dew Point Humidity Pressure Visibility Wind Dir Wind Speed Gust Speed Precip Events Conditions
12:56 AM 30.0 °F 25.2 °F 25.0 °F 82% 30.45 in 8.0 mi ENE 4.6 mph - N/A   Clear
1:56 AM 30.9 °F 25.2 °F 25.0 °F 79% 30.43 in 10.0 mi East 5.8 mph - N/A   Clear
2:56 AM 28.9 °F - 23.0 °F 78% 30.44 in 10.0 mi Calm Calm - N/A   Clear
3:56 AM 27.0 °F - 21.9 °F 81% 30.45 in 9.0 mi Calm Calm - N/A   Clear
4:56 AM 25.0 °F - 19.9 °F 81% 30.47 in 9.0 mi Calm Calm - N/A   Clear
5:56 AM 25.0 °F 20.7 °F 19.9 °F 81% 30.48 in 8.0 mi ESE 3.5 mph - N/A   Clear
6:56 AM 28.0 °F - 23.0 °F 81% 30.49 in 10.0 mi Calm Calm - N/A   Clear
7:56 AM 37.9 °F - 28.0 °F 68% 30.49 in 10.0 mi Calm Calm - N/A   Clear
8:56 AM 46.9 °F - 26.1 °F 44% 30.48 in 10.0 mi Variable 5.8 mph - N/A   Clear
9:56 AM 51.1 °F - 21.9 °F 32% 30.45 in 10.0 mi Variable 5.8 mph - N/A   Clear
10:56 AM 54.0 °F - 19.0 °F 25% 30.44 in 10.0 mi Variable 3.5 mph - N/A   Clear
11:56 AM 57.0 °F - 21.9 °F 26% 30.42 in 10.0 mi WSW 8.1 mph - N/A   Clear
12:56 PM 57.2 °F - 24.8 °F 29% 30.38 in 10.0 mi West 6.9 mph - N/A   Clear
1:56 PM 59.0 °F - 26.1 °F 28% 30.36 in 10.0 mi West 9.2 mph - N/A   Clear
2:56 PM 61.0 °F - 25.0 °F 25% 30.33 in 10.0 mi West 6.9 mph - N/A   Clear
3:56 PM 62.1 °F - 27.0 °F 26% 30.30 in 10.0 mi West 9.2 mph - N/A   Clear
4:56 PM 62.1 °F - 28.0 °F 28% 30.27 in 10.0 mi West 8.1 mph - N/A   Clear
5:56 PM 63.0 °F - 27.0 °F 26% 30.25 in 10.0 mi West 5.8 mph - N/A   Clear
6:56 PM 63.0 °F - 28.9 °F 28% 30.22 in 10.0 mi NNW 3.5 mph - N/A   Clear
7:56 PM 55.0 °F - 27.0 °F 34% 30.21 in 10.0 mi Calm Calm - N/A   Clear
8:56 PM 53.1 °F - 33.1 °F 47% 30.19 in 10.0 mi North 3.5 mph - N/A   Partly Cloudy
9:56 PM 51.1 °F - 33.1 °F 50% 30.18 in 10.0 mi North 4.6 mph - N/A   Clear
10:56 PM 46.9 °F - 33.1 °F 59% 30.17 in 10.0 mi Calm Calm - N/A   Clear
11:56 PM 44.1 °F 42.5 °F 33.1 °F 65% 30.15 in 10.0 mi East 3.5 mph - N/A   Clear